Airline a Clear Favorite to win Watson Ford

This content requires a MileSplit Pro plan.
Join Now and select any plan for instant access!

MileSplit Pro
Join Now

Boys

Taejon Morris, Airline looks set to win unless Brock Kelly, Tupelo Christian moves up to challenge him. The top Mississippi runner currently ranked is Preston Burks, Hernando. In the team race it looks like Airline will win the boys even with some of the stronger small schools moving up.

Championship Meet - 44 Teams

PlaceAthleteYrTeamTimePoints
1Taejon Morris12Airline16:14.011
2Will Dart11Airline16:24.702
3Robert Dawson10Bartlett High School16:28.003
4Landen McNair9Bartlett High School16:31.004
5Octavio Tilley12Ruston16:34.435
6Joshua Burns11Airline16:36.276
7Preston Burks12Hernando High School16:39.507
8Goffrey Cole12Airline16:50.818
9Collin Morgan11Airline16:54.309
10Clay Derrick12Oak Grove High School16:55.7010
11Marshall Buhler12Fontainebleau16:56.5511
12Rylee Hertter11Bartlett High School16:58.0012
13Alexander Whyte11Ocean Springs High School17:04.9313
14Christian Balcer10East Central High School17:05.2114
15Payton Temple12Saltillo High School17:06.2015
16Jefferson Matthews10Ruston17:12.7116
17Andrew Burke11Bartlett High School17:1317
18Grayson Childress9Brookhaven High School17:15.1618
19Ladarius Evans12Petal High School17:15.8619
20Travis Jones11Bartlett High School17:17.220
21Jacob Britt11Brookhaven High School17:17.4121
22Austin Bourne12Brandon High School17:18.7322
23Eli Hannon11Saltillo High School17:21.2023
24Matthew Mestayer12Ocean Springs High School17:30.8224
25John Michael Romanos10St. Paul's Episcopal17:31.8425
26Steve Damian10Airline17:32.3726
27Jonathan Davis12Baker17:34.0227
28Gabriel Cole11Airline17:34.5328
29Mathias Guthrie11Bartlett High School17:35.0029
30Thomas Ratliff12Corinth High School17:35.7130
31Eli Cappleman12Starkville High School17:36.4031
32Carson Barlow11Baker17:37.532
33Connor O'Keefe12Biloxi High School17:38.2433
34Christian Leach11Starkville High School17:40.4034
35Caleb Horton11Baker17:43.7035
36Joseph Gallo12Ocean Springs High School17:46.2136
37Patton Sims12Sterlington17:48.9137
38Grant McQueen11Baker17:50.5038
39Dyllon Nimmers10Ruston17:54.1439
40Harrison Hartwell12Ruston17:54.5440
41Spencer Davis12South Panola High School17:55.0041
42Jack Cobb11Saltillo High School17:55.2042
43Rustin Roberts9Saltillo High School17:55.5043
44Wilkes Howes11St. Paul's Episcopal17:55.6744
45Gabe Wilcox12Madison Central HS17:56.0045
46Kaleb Nelson12Baker17:57.0046
47Tanner Childs12Kossuth High School17:59.5447
48John Ross Donnes12St. Thomas Aquinas17:59.5548
49David Ramsey10Madison Central HS17:59.6049
50Geir Sajdak12Hernando High School18:00.6050
51Drew Saucier12Ocean Springs High School18:01.4651
52Stone Smith8St. Paul's Episcopal18:03.8852
53Gabriel Rivera11Ruston18:05.0853
54Joshun Noel12Clinton High School18:05.2354
55Austin Syme12Senatobia High School18:05.4055
56Alex Hood11Ruston18:07.1756
57Grayson Frieze12Ocean Springs High School18:08.5357
58Jonathan Carter12Ocean Springs High School18:08.8758
59Adam Taylor12East Central High School18:09.4459
60Max Putnam10Bartlett High School18:11.0060
61Jacob Peirce12Bartlett High School18:11.00--
62Mac Conwell8St. Paul's Episcopal18:11.5361
63Joel Parker11Corinth High School18:12.1462
64Sam Arnold9Brookhaven High School18:12.9063
65David Bennett11West Monroe18:14.8164
66Isaac Moore12Airline18:16.28--
67Owen Jensen10Fontainebleau18:17.0565
68Logan Lucas12St. Thomas Aquinas18:17.3266
69Jake Thompson9Brookhaven High School18:22.3667
70Lucas Baggott11Baker18:23.6268
71Spencer Jones9Biloxi High School18:24.2669
72Silas Herring12Saltillo High School18:24.7070
73Adrian Harris12Madison Central HS18:26.1771
74Daniel Rowland10West Monroe18:27.6872
75Will Wayne10Corinth High School18:27.8073
76Austin Sanders12Saltillo High School18:28.0074
77Jacob Timmons11Saltillo High School18:28.4075
78Adam Atigh10East Central High School18:31.6576
79Titus Watts10Ruston18:31.8977
80David Bond11Ocean Springs High School18:32.4078
81Caleb Babineaux9Ruston18:33.85--
82Robert Hughes12Ocean Springs High School18:33.97--
83Justin Davis12Hernando High School18:34.0079
84Joseph Thornhill8Hernando High School18:34.0080
85Noah Jones9Saltillo High School18:34.90--
86Noah Bowlin9Brandon High School18:38.4981
87William Jameson9St. Paul's Episcopal18:38.7482
88Carter Campbell12Starkville High School18:39.4083
89Victor Espinosa11Corinth High School18:39.5084
90John Geoffrey Campbell10Starkville High School18:39.6085
91Anthony Smith9Ocean Springs High School18:39.90--
92Jon Avery10West Monroe18:40.0986
93Christian Grant10West Monroe18:41.7387
94Kyle Capo11Saint Stanislaus High School18:42.5788
95John Davis Vessel9Ruston18:44.31--
96Jonathan Briggs12Brandon High School18:44.8589
97Peyton Marshall12Corinth High School18:44.8690
98Baylor Picard10West Monroe18:45.8491
99Elliot Garst9Bartlett High School18:46.00--
100Bryson Taylor10Senatobia High School18:48.2092
101Zack McDivitt9Saltillo High School18:49.20--
102Evan Carite11Clinton High School18:50.7293
103Victor Espinosa11Corinth High School18:50.8294
104Andrew Keith10Starkville High School18:51.9095
105Daniel Fair9Saltillo High School18:52.40--
106Brendan Dye12Baker18:53.3796
107Jameson Hollis11Baker18:53.74--
108Dylan Chapman8Brandon High School18:54.0397
109Trent Rader12Baker18:55.04--
110Nelson Blackburn9Ruston18:55.13--
111Sean Floore9Ocean Springs High School18:57.22--
112Sam Kirkland10South Panola High School18:57.5098
113Evan Miller11Baker19:00.54--
114Michael Bishop12Ruston19:03.91--
115Will Gentry10Saltillo High School19:04.70--
116Ricardo Hernandez8Corinth High School19:04.7099
117Sam Lovette11Brandon High School19:04.94100
118Connor Berry12Senatobia High School19:05.00101
119Cameron Wright10Hernando High School19:05.00102
120Reece Demattos11Ruston19:07.62--
121Charlie Meeks12Kossuth High School19:08.00103
122Maxwell Weiss11Hernando High School19:08.00104
123Peyton Belsom10Fontainebleau19:09.93105
124Seth Blackard12Kossuth High School19:11.00106
125Isaiah Chambers12Senatobia High School19:11.00107
126Michael Prather10Corinth High School19:13.22--
127Thomas Powell10Ocean Springs High School19:14.12--
128Jason Roberson12Starkville High School19:15.05108
129Jesus Requena12Corinth High School19:15.10--
130Cade Williams9Ruston19:15.17--
131Triston Ervin10West Monroe19:15.84109
132Hunter Sallis11Germantown High School19:16.80110
133Matthew Montiforte10Biloxi High School19:17.29111
134Keegan Leverett9Saint Stanislaus High School19:19.97112
135Parker LeGoff8Corinth High School19:20.41--
136Jake Weems12Ocean Springs High School19:21.39--
137Morgan Toomer12Corinth High School19:23.83--
138Brandon Griffith9Long Beach High School19:24.41113
139Cooper Doychak10Ocean Springs High School19:25.40--
140Lucas Mcclain11Airline19:25.67--
141Ty Castro10Airline19:25.77--
142Ryan Allen9Saltillo High School19:26.60--
143Luke Mason11Germantown High School19:27.10114
144Jordan Shannon12Clinton High School19:27.10115
145Jon Burris11Biloxi High School19:27.62116
146Norberto Lopez10Biloxi High School19:28.70117
147Landry Lemoine12Saint Stanislaus High School19:29.00118
148Layton Levingston10Brandon High School19:29.32119
149Mason Bunch12Germantown High School19:30.15120
150Alex Koons12Saint Stanislaus High School19:30.54121
151Cooper Glidewell9Kossuth High School19:31.00122
152Cade McCullough11Ocean Springs High School19:31.65--
153Campbell Dye10Saltillo High School19:32.50--
154Matt Davis12Hernando High School19:34.00123
155Nick South11Corinth High School19:34.80--
156Angel Vela11D'Iberville High School19:34.82124
157Matthew Burrow10Madison Central HS19:35.50125
158Tyler Morgan12Airline19:35.52--
159Trell Arrington12Oak Grove High School19:38.00126
160Tony Velasquez12Sterlington19:39.13127
161Martinez Bogan11Clinton High School19:40.21128
162Kendrick Matthews Jr9McComb High School19:41.00--
163Cameron Entremont10Brandon High School19:41.32129
164Luke Grissom12Saltillo High School19:44.50--
165Alex Beeler10Ocean Springs High School19:44.69--
166Luke Lansdown9Ocean Springs High School19:45.79--
167Joshua Elkins11Saint Stanislaus High School19:46.95130
168Braxton Taylor10Senatobia High School19:47.60131
169Aiden Hudson9Saltillo High School19:48.00--
170Rylee Taylor9West Lauderdale High School19:48.39132
171Carston Raymond11Saint Stanislaus High School19:48.68133
172Landon Chalden12Biloxi High School19:50.15134
173Adan Byrd9Warren Central HS19:51.70135
174Sian McGregor11Brandon High School19:52.00--
175Todd Harmon8Hernando High School19:52.00--
176James Lawson11Kossuth High School19:52.20136
177Owen Best12Fontainebleau19:52.46137
178Ben Wilkinson9Oak Grove High School19:53.45138
179Collin Kellum9Brookhaven High School19:55.57139
180Carter Shannon9Saltillo High School19:56.90--
181Nathan Brady8Hernando High School19:57.00--
182Ross Watkins11Baker19:57.47--
183Jace Gipson11Biloxi High School19:58.44140
184Bronson Harper12West Lauderdale High School19:59.20141
185Griffin Atkinson10West Lauderdale High School19:59.56142
186Kyle Holland10Ocean Springs High School19:59.92--
187J.J. Lincoln9Saltillo High School20:00.20--
188Carter Heavner12Baker20:03.19--
189Ty Frazier9Fontainebleau20:03.43143
190Grayson Ard10East Central High School20:03.72144
191Owen Hill12Kossuth High School20:04.58145
192Diesel Martin9West Monroe20:04.68146
193John Koehler10Baker20:05.44--
194Matthew Smith10Oak Grove High School20:05.99147
195Jack Maloney11Clinton High School20:06.10148
196Chris Funchess10Brandon High School20:06.13--
197Colby Brown10West Lauderdale High School20:06.40149
198Christian Impey12Ocean Springs High School20:06.45--
199Stuhr Outlaw12Warren Central HS20:07.90150
200Jantzen Woodard9Saltillo High School20:08.00--
201Wray Willis10South Panola High School20:08.20151
202Emerson Mansfield10Saltillo High School20:09.50--
203Blake Knippers11Corinth High School20:09.75--
204Dalton Morgan12Warren Central HS20:12.09152
205Jes Patrick10Kossuth High School20:13.48153
206Brandon Williams9Senatobia High School20:14.40154
207Miller Rebeles12West Lauderdale High School20:15.90155
208Aiden Theobald11Saint Stanislaus High School20:16.37156
209Glynn Heath12Clinton High School20:16.82157
210Gavin Bankston9St. Thomas Aquinas20:18.72158
211Justin Villaflor12Corinth High School20:19.98--
212Douglas Robinson11St. Thomas Aquinas20:20.84159
213Matthew Saffle10Germantown High School20:21.30160
214Zack Holley10Petal High School20:21.92161
215Brandon Anthony11Ocean Springs High School20:23.74--
216Rhett Schimpf9Starkville High School20:24.30162
217Drew Speaks12Germantown High School20:25.10163
218Jean Betancourt9West Lauderdale High School20:26.44164
219Noah Mason9Germantown High School20:27.02165
220Bralen Williams9Lafayette High School20:27.54166
221Aaron Cater11Biloxi High School20:27.65--
222Nick Hopper11Kossuth High School20:29.39--
223Ethan Wright9Bartlett High School20:30.00--
224Ethan Martens7Hernando High School20:30.00--
225Preston Lee12East Central High School20:30.08167
226Kaden Hill11Senatobia High School20:30.70168
227Spencer Olsen10Saltillo High School20:33.50--
228Chance Kirby9Bartlett High School20:34.00--
229Drew Martin10Saltillo High School20:34.00--
230Leonard Sims11Vicksburg High School20:34.20169
231Matthew Johnson9Hancock High School20:34.26170
232Christopher Funches12Brandon High School20:34.84--
233Josh Love12Clinton High School20:35.50171
234Weston Diamond12St. Fredrick20:37.21172
235Kenny-Dean Smith9Starkville High School20:37.50--
236Logan Hearn11Florence High School20:37.56173
237Dyllanger Fisher11Biloxi High School20:38.23--
238Gates Kaufman11St. Paul's Episcopal20:38.57174
239Sean Boney10Lafayette High School20:38.70175
240Hudson Cargile11Senatobia High School20:38.89--
241Walker McRee9Baker20:39.93--
242Cameron Forestieri12Ocean Springs High School20:40.02--
243Tyler Budinich12Ocean Springs High School20:40.28--
244Phillip Wright10Madison Central HS20:40.40176
245Brett Ryan12Pascagoula High School20:40.91177
246David Bledsoe12South Panola High School20:42.00178
247Tanner Reeves8Starkville High School20:42.02--
248Dominique Williams12Greenville HS20:42.19--
249Antonio Fleek-Quiros9Bartlett High School20:43.00--
250Carson Leverett9Saint Stanislaus High School20:45.65--
251Ezekiel Hutchinson12West Lauderdale High School20:46.89179
252John Murray McCullouch10Germantown High School20:47.50180
253Isaac Fisher11Oak Grove High School20:47.61181
254Victor Yen11Clinton High School20:48.60--
255Justin McGee12Terry High School20:49.35182
256Wesley Watson8Long Beach High School20:49.63183
257Jonathan Boudouin11Fontainebleau20:50.31184
258Arkelis Wilson12Pascagoula High School20:51.41185
259John Kupersmith12Baker20:51.53--
260Reed Fairly9Saint Stanislaus High School20:52.27--
261Wesley Phillips12West Lauderdale High School20:52.33--
262Christian Tyler Frick9D'Iberville High School20:52.34186
263William Ellis10Madison Central HS20:52.35187
264Ben Seleman9Brandon High School20:52.85--
265Jacob Albritton12St. Fredrick20:54.02188
266Luke Thomas8Long Beach High School20:54.06189
267Braxton Brigman11Hernando High School20:55.00--
268Ben Wilcke12Hernando High School20:55.10--
269Seth Penton11Hancock High School20:55.47190
270Lawson James9Baker20:55.81--
271Christian Peyton9Brookhaven High School20:56.53191
272Cameron Broome10Biloxi High School20:57.55--
273Hudson Shotts10Clinton High School20:57.82--
274Xavier Pace9Bartlett High School20:58.00--
275Wagner Logan10Sterlington20:58.07192
276Chase Black11Ocean Springs High School20:59.57--
277Zach Crawford10Saltillo High School20:59.90--
278Cody Rowan12Oak Grove High School20:59.95193
279Matthew Browning10Airline21:00.41--
280Tyler Armstrong10Brandon High School21:00.59--
281Daniel Simkins8Brandon High School21:00.68--
282Kolby Sessions10Brandon High School21:04.55--
283Grayson Webb12Baker21:04.87--
284Andrew Wharton10Saltillo High School21:05.00--
285Daniel Brown9Ruston21:05.05--
286Ryan Taylor10Ocean Springs High School21:05.67--
287Zach Millwood10Ocean Springs High School21:05.73--
288John Micheal Nipper9St. Paul's Episcopal21:06.84194
289Reid Loper10D'Iberville High School21:08.12195
290Robert Draper9Corinth High School21:09.16--
291Ethan Adams10Germantown High School21:09.36--
292Grant Heath12Clinton High School21:09.50--
293Chris Bell9Starkville High School21:09.57--
294David Hull12Gentry High School21:11.67196
295Elijah Stage9Hernando High School21:12.00--
296Jaylin Wilbert10Airline21:12.07--
297Jay McCaleb12Hernando High School21:13.40--
298Rickey Gibson9Bartlett High School21:14.00--
299Richard Smallwood12Brandon High School21:14.48--
300Josh Ruiz10Brandon High School21:14.96--
301Isaac Alanis10Ocean Springs High School21:16.68--
302Dewayne Bradley12Terry High School21:17.38197
303Elijah Matthews11Bartlett High School21:17.40--
304Jase Pope9Sterlington21:18.40198
305Abel Nettles9Saint Stanislaus High School21:18.56--
306Gabe Sandoz10Saint Stanislaus High School21:18.90--
307John Riley Turner12Oak Grove High School21:19.02199
308Samuel Mabile11Brookhaven High School21:19.30200
309Blaine Causey9South Jones High School21:20.61--
310Nathaniel Salter9Biloxi High School21:21.13--
311Caleb Kemsley12Fontainebleau21:21.89201
312Hayes Gill9St. Fredrick21:22.89202
313Jon Gautreaux10D'Iberville High School21:23.75203
314Taze Fulford7Starkville High School21:23.99--
315Senton Granberry9Oak Grove High School21:24.00--
316Jackson Maillho11Saint Stanislaus High School21:25.54--
317Chandler Bryant10Starkville High School21:25.54--
318Joshua Cardon11Ocean Springs High School21:26.99--
319Zac Howe10Brandon High School21:27.02--
320Orlando Liddell10Gentry High School21:27.44204
321Trent Pitalo10Ocean Springs High School21:28.20--
322Clayton White12Florence High School21:28.26205
323Ross Evans8Corinth High School21:28.28--
324Neil Sanipara10Warren Central HS21:28.40206
325Jake Thomas8Long Beach High School21:28.84207
326Brian Lawson12Brandon High School21:29.65--
327Jackson Vice11East Central High School21:29.86208
328Ethan Joyce10Airline21:31.47--
329Tommy Armstard11Sterlington21:32.18209
330Zet Mirabueno11West Lauderdale High School21:32.42--
331Wesley Smalley9Florence High School21:32.57210
332Mac McCormick11Oak Grove High School21:34.15--
333Austen Hunsaker12Sterlington21:34.27211
334Jackson Morris9Saint Stanislaus High School21:34.47--
335Donovan Hurst10McComb High School21:34.55--
336Cody McCaffrey10Brandon High School21:35.56--
337Billy Jackson10Brookhaven High School21:35.64--
338Thomas Watson10St. Fredrick21:35.73212
339Landon Small9Airline21:36.80--
340Gavin Swift11Florence High School21:39.11213
341Lisandro Escobedo9Lafayette High School21:39.50214
342George Gaskin12Vicksburg High School21:40.98215
343Michael Burns10Saint Stanislaus High School21:44.11--
344Vignesh Karthik9Oak Grove High School21:44.13--
345William Hendricks11Biloxi High School21:46.63--
346Anthony Lewis11Brandon High School21:47.96--
347Brody Juneau10St. Thomas Aquinas21:49.22216
348Tj Strickland12Kossuth High School21:49.30--
349Preston Blackstock--Airline21:50.37--
350Nate Abel10Oak Grove High School21:50.89--
351Sam Emerson12Florence High School21:51.33217
352Garrett Kraut10Oak Grove High School21:53.90--
353Pack Stabler9St. Paul's Episcopal21:54.21--
354Jacob Spencer9Senatobia High School21:55.00--
355Noah Roblin10Oak Grove High School21:55.68--
356Jon Torres10St. Fredrick21:55.85218
357Jack Bower10Brookhaven High School21:55.89--
358Gabe Esqueda9D'Iberville High School21:56.00219
359Jacob King9Germantown High School21:56.87--
360Chase Drewery9Corinth High School21:56.90--
361Hayden Humpherys9Oak Grove High School21:58.28--
362Carter Lee10Ocean Springs High School21:58.82--
363Josh Eakes10West Lauderdale High School21:59.79--
364Gus Breisacher9Saint Stanislaus High School21:59.90--
365Nick Steinbrecher9Bartlett High School22:00.00--
366Evan Gregory9Saltillo High School22:00.70--
367Jackson Lafferty10West Lauderdale High School22:01.43--
368Cooper Smith10Airline22:02.66--
369Tanner Keith10Ocean Springs High School22:02.83--
370Scott Aldridge12Sterlington22:02.86220
371Ethan Yang12Petal High School22:05.80221
372Janthony Ruiz11Pascagoula High School22:06.35222
373Devin Carter12Long Beach High School22:06.45223
374Gage Brock12Petal High School22:06.72224
375Graham Weiss8Hernando High School22:09.00--
376Kevin Posadas9Corinth High School22:09.43--
377Justin Magee12Terry High School22:09.65225
378Canaan Mercer9Madison Central HS22:12.40226
379Kevin Posadas9Corinth High School22:13.60--
380Will Nuckolls8Corinth High School22:14.49--
381George Davis9Corinth High School22:14.69--
382Chris Wilkinson11Corinth High School22:16.04--
383Chase Kearny9Saint Stanislaus High School22:16.75--
384Charles Wesley12Terry High School22:17.95227
385David Betancourt11West Lauderdale High School22:17.98--
386Raul Marquez11Hernando High School22:19.54--
387Alex Marthouse9Saint Stanislaus High School22:19.55--
388Koby Rhone10Senatobia High School22:20.00--
389Matthew Swiderski10Starkville High School22:20.58--
390Ben Carrigee9Saint Stanislaus High School22:21.21--
391Zac Boyd10Warren Central HS22:21.9228
392Sam Mead10Madison Central HS22:22.45--
393Sean Bell9Airline22:23.63--
394Landon Dickens10Germantown High School22:23.76--
395Roger Wszolek9Madison Central HS22:24.85--
396Haden Page7Hernando High School22:28.00--
397Liam Arnsdorff11Saint Stanislaus High School22:28.72--
398Ashton Rubio10Ocean Springs High School22:30.52--
399Dean Wingate11Starkville High School22:30.97--
400Zach Bishop12Bartlett High School22:31.00--
401Clayton Donnell9Madison Central HS22:31.26--
402Mason Bay11Lafayette High School22:31.40229
403Matthew Landis12West Lauderdale High School22:31.93--
404Logann Cossey11South Panola High School22:32.00230
405Tanner Armstard11Sterlington22:32.59--
406Samuel Harris9Ocean Springs High School22:33.36--
407Joseph Hogue11Lafayette High School22:33.40231
408Liam McGowan9Biloxi High School22:33.66--
409James Gardner11Brookhaven High School22:33.77--
410Evan Stroupe8Hernando High School22:34.00--
411Evan Drye9Saint Stanislaus High School22:34.26--
412Brett Gordon10West Lauderdale High School22:36.66--
413Mostalgic Prather9Corinth High School22:37.71--
414Scott Grimes11Corinth High School22:38.04--
415Trace Brady10Brookhaven High School22:38.12--
416Dylan Scruggs12Saltillo High School22:38.60--
417William Panni9Pascagoula High School22:40.20232
418Michael Pitts12Oak Grove High School22:42.14--
419Oclevis Lester12Brandon High School22:42.18--
420Drew Copeland11Senatobia High School22:42.70--
421Carlos Torres8Long Beach High School22:43.54233
422Dylan Jones8Hernando High School22:45.00--
423Noah Epker9St. Paul's Episcopal22:48.87--
424Reed Martin10Saltillo High School22:48.90--
425Nicholas Camp10South Panola High School22:49.20234
426Graham Gustafson11Oak Grove High School22:49.65--
427Karl Grebner12Starkville High School22:50.46--
428Taylor Quijada9West Lauderdale High School22:50.53--
429Nick Craven12Corinth High School22:51.62--
430Robert "Bo" Broome9Warren Central HS22:53.50235
431Riley Summerall10West Monroe22:54.29--
432Eric Powell9McComb High School22:54.44--
433Bradley Bacon10Airline22:54.77--
434Tyler Riley12South Panola High School22:56.65236
435Lakeldrick Jones10Greenville HS22:57.77--
436Rhett Smith12West Lauderdale High School22:58.83--
437Jared Thompson11Oak Grove High School22:59.73--
438Victor Nguyen11Baker23:01.15--
439Javril Bracey12Clinton High School23:02.61--
440Jamarius Hammond10Madison Central HS23:04.00--
441John Michael Chance11Brookhaven High School23:04.25--
442Tristan Crass9Warren Central HS23:06.65237
443Ryan Deyoe12D'Iberville High School23:07.74238
444Joseph Valentine9St. Paul's Episcopal23:07.88--
445Joshua Matthews9Bartlett High School23:08.00--
446Samuel Terrett10Warren Central HS23:08.30--
447John Camillo11Clinton High School23:08.80--
448Julian James12St. Fredrick23:09.02239
449Jacob Hertter9Bartlett High School23:11.00--
450Austin Ogg9Lafayette High School23:12.00240
451Braxton Allen11Brookhaven High School23:12.39--
452Tyler Robinson10Ocean Springs High School23:13.58--
453Landen Schillage9St. Thomas Aquinas23:13.60241
454Keith Courtney12Clinton High School23:14.55--
455Andrew White9Florence High School23:15.24242
456Ethan Foster10St. Thomas Aquinas23:15.63243
457Chris Cothern12Oak Grove High School23:16.64--
458Daniel Brewer9Airline23:16.94--
459Frank Bradley9Clinton High School23:17.90--
460Isaac McCormick10Ocean Springs High School23:21.53--
461Gabriel Freedman9Madison Central HS23:22.37--
462Caleb Stroupe9Hernando High School23:23.00--
463Hudson Rutledge7Corinth High School23:23.08--
464Jacob Holland9Long Beach High School23:23.41244
465Holden Gines9Starkville High School23:24.15--
466Drew Walters10Starkville High School23:24.30--
467Samuel Flurry12East Central High School23:26.43245
468Jermiyah Brown12Vicksburg High School23:26.50246
469Greg Jones10Starkville High School23:26.80--
470Jordan Green10Ocean Springs High School23:29.38--
471Fisher Clark10Petal High School23:30.07247
472Aidan Settlemires11Ocean Springs High School23:30.90--
473Benjamin Hutchinson11D'Iberville High School23:31.07248
474Jake Baleyev9Long Beach High School23:31.32--
475Ethan Mitchell10Ocean Springs High School23:33.56--
476Trey Knott9Brookhaven High School23:33.62--
477Ted Burrall12Hernando High School23:36.00--
478Ethan Harriel12Hancock High School23:36.26249
479Jared Brown11Senatobia High School23:37.00--
480Aaryan Piracha10Ocean Springs High School23:37.38--
481Lee Taylor12D'Iberville High School23:38.29--
482Will Mccormack10Kossuth High School23:38.41--
483Jayden Gillion11Bartlett High School23:41.00--
484Dalton Gonnillini11West Monroe23:42.88--
485Brandon Baker10Bartlett High School23:44.00--
486Jared Grover12Hancock High School23:46.62250
487Jj McQueen9Florence High School23:47.29251
488Kendall Hayes9Terry High School23:47.37252
489Sean Slade12Warren Central HS23:48.23--
490Philip Foster8St. Paul's Episcopal23:48.98--
491Gordon Tardy9Bartlett High School23:50.00--
492Douglas Washington10Greenwood High School23:50.00253
493Adam Zettle9Oak Grove High School23:51.14--
494Logan Clinton9D'Iberville High School23:51.24--
495Matthew Peak9Long Beach High School23:52.08--
496Sage Aucion12D'Iberville High School23:52.36--
497Baxley Blanton7St. Paul's Episcopal23:52.38--
498Curtisco Jennings9Gentry High School23:52.61254
499Tommy Ford7St. Paul's Episcopal23:55.86--
500Jt Cox11Kossuth High School23:57.60--
501Eli Grover10Hancock High School23:58.15255
502Clayton Teague9Long Beach High School23:59.05--
503Nathan Massey10Clinton High School24:00.45--
504Cooper Taylor7Baker24:02.81--
505Darshawn Gonzalez9Corinth High School24:02.85--
506Collin Bordenkircher7Corinth High School24:03.92--
507Will Steward8Corinth High School24:05.27--
508Billy Mays11Biloxi High School24:05.47--
509Joseph Stewart10Ocean Springs High School24:07.56--
510Haydn Sayner-Oubre7St. Paul's Episcopal24:09.41--
511Aidan Henderson9Bartlett High School24:12.90--
512Cody McNeese11Oak Grove High School24:13.49--
513Evan Tran9D'Iberville High School24:16.53--
514Leland Davis7Corinth High School24:16.67--
515Devin Lyles12Gentry High School24:18.21256
516TaDarrian Woodard9South Panola High School24:19.00--
517Paslay Adkins12Saltillo High School24:19.70--
518Dominic Turner9Terry High School24:23.88257
519Jaickie Patel12Petal High School24:29.22258
520Bennett Jones9Brookhaven High School24:30.19--
521ryan estbrook10Hancock High School24:31.06259
522Shelton Abbott10Hancock High School24:33.00260
523Michael Semrick9East Central High School24:37.16--
524Nathan Walters11East Central High School24:38.95--
525Thomas Carter9Saint Stanislaus High School24:42.29--
526Alex Lawson10Petal High School24:43.98261
527Raden Burris12Clinton High School24:44.90--
528Wyatt Schrader9Warren Central HS24:45.51--
529Tyron Moore12Vicksburg High School24:45.84262
530Juan Duarte10Madison Central HS24:47.94--
531Michael Seymour9Ocean Springs High School24:52.14--
532Jaden Peters9Saltillo High School24:54.60--
533Tiernan Alderman11Saint Stanislaus High School24:56.15--
534Austin Mitchell10Senatobia High School25:02.70--
535Alec Dufriend10St. Thomas Aquinas25:02.97--
536Will Hardy12Starkville High School25:04.13--
537Sam Largen11Oak Grove High School25:04.37--
538Garret Touchet11Long Beach High School25:08.50--
539Nathan Wojtowicz9Saint Stanislaus High School25:10.37--
540Trey Noble10Ocean Springs High School25:10.84--
541Keller Roach7Corinth High School25:12.76--
542Jeremiah Shelby10Vicksburg High School25:14.15263
543Aston Martin10Germantown High School25:14.17--
544Malik Gleaton10South Panola High School25:16.40--
545Eric Grover10Oak Grove High School25:24.89--
546Eli Miles9West Lauderdale High School25:26.00--
547Ethan Smith12Starkville High School25:26.10--
548Andrew Carpenter7Corinth High School25:29.13--
549Robert Williams10Greenville HS25:29.89--
550James Cosie10Greenville HS25:35.69--
551Daniel Smith11Scott Central High School25:37.87264
552Reed Priest12Saltillo High School25:41.25--
553Quin Harrington11D'Iberville High School25:42.73--
554Trever Treakle10Biloxi High School25:48.44--
555Tanner Bridges12Brandon High School25:48.77--
556Juan Torres10Pascagoula High School25:49.59265
557Grant King12Baker25:54.13--
558Tyler Jacobs9Oak Grove High School25:56.11--
559Jamare Martin10St. Paul's Episcopal25:56.80--
560Zachary Wilson9Airline25:56.94--
561Ethan Wacker10Hernando High School25:57.00--
562Gage Martin9Lafayette High School25:58.50266
563Daimion Harmon12South Panola High School25:59.00--
564Peytin Jackson11Vicksburg High School25:59.09267
565Cameron Butler11Vicksburg High School25:59.92268
566Emanuel Cathey12South Panola High School26:00.50--
567Chris Wright8Hernando High School26:02.70--
568Nick Jenkins10Oak Grove High School26:06.26--
569Steven Roldan10Bartlett High School26:10.00--
570Philip Gill7St. Paul's Episcopal26:11.92--
571Bob Failing10Saint Stanislaus High School26:14.03--
572Caleb Lafferty12Lafayette High School26:18.00--
573Jose Martinez9Pascagoula High School26:18.25269
574marck konopacki13Hancock High School26:19.15--
575Eli Stewart8Scott Central High School26:20.76270
576Ty Fiegel9Saint Stanislaus High School26:22.86--
577Jacob Nipper7St. Paul's Episcopal26:23.69--
578Micah Bridges11Sterlington26:25.94--
579Reese Flotte7St. Paul's Episcopal26:26.20--
580Jake Litchfield9West Lauderdale High School26:26.43--
581Grahm Burks9Sterlington26:27.15--
582Grant Holladay10Hancock High School26:30.84--
583Justin Bell9Warren Central HS26:37.05--
584Christian Jones12Terry High School26:37.67271
585David Moulder9Bartlett High School26:38.00--
586Brandon Bullock8Florence High School26:40.42--
587Michael Cousin9Hernando High School26:42.00--
588Cason Oglesby11St. Fredrick26:46.01272
589C.J. Wilson9Saltillo High School26:47.70--
590Will Quartaro9Saltillo High School26:48.00--
591Grayson Marable10Saltillo High School26:48.70--
592John Cordell12St. Fredrick26:52.67--
593Kyle Graves10Ocean Springs High School26:53.12--
594Graham Carter8Hernando High School26:54.00--
595Michael Meacham7Hernando High School26:55.00--
596Landon Skaggs9Petal High School26:58.05--
597Elias Neal9Brandon High School26:59.34--
598Colby Henderson11Terry High School27:06.25--
599Lance Spain10Baker27:07.79--
600Brice Fortenberry10Brandon High School27:08.08--
601Ben Sartor8Hernando High School27:11.00--
602Blaize Chaudron9West Lauderdale High School27:15.42--
603Devin Harris10Terry High School27:20.65--
604Andrew Dawson12St. Thomas Aquinas27:21.49--
605Jace Malone12Kossuth High School27:25.44--
606Ricky Graves12Oak Grove High School27:31.85--
607Cole Shelly8Corinth High School27:38.15--
608Chris Jung9Saint Stanislaus High School27:40.70--
609Hollis Martin7St. Paul's Episcopal27:46.64--
610Conner Rigby9Biloxi High School27:49.10--
611Kaden Pilstrom7Hernando High School27:52.00--
612Ajani Thompson9Brookhaven High School27:58.86--
613Nathan Reiss11Scott Central High School28:01.41273
614Jesse Mixon8West Lauderdale High School28:05.90--
615Jayshard Bradfield12Terry High School28:14.20--
616Ronderick Leason12Greenwood High School28:17.00274
617Connor Thompson9Terry High School28:21.83--
618Warren Smith11Greenwood High School28:25.00275
619Chris Hooper9Saltillo High School28:26.00--
620Hilton Mills9D'Iberville High School28:28.22--
621Bryce Bradley9Brookhaven High School28:30.73--
622Robert Valdez7Corinth High School28:35.40--
623Connor Fowler8Pascagoula High School28:38.86276
X624Jarvis Clay10Greenwood High School28:42.00277
625grant oliday10Hancock High School28:46.13--
626Qindarious White10Greenwood High School28:48.00278
627Davonte Lewis10Scott Central High School28:52.46279
628Andrei Roskelley Garcia9Starkville High School28:58.40--
629Victoniyon Daniels9Gentry High School29:00.25280
630Thomas Waddell10Pascagoula High School29:13.12--
631Drake Nelson9Terry High School29:20.55--
632Jordan Meaows12Scott Central High School29:22.83281
633Josh Heggins9Warren Central HS29:22.94--
634Jacob Jones8Pascagoula High School29:29.25--
635Levi Williams10South Panola High School29:30.20--
636Jesse Arnold10Kossuth High School29:46.12--
637Alex Valenzuela7St. Paul's Episcopal29:47.36--
638Caleb Edelblute9Starkville High School29:47.59--
639Jaquarius McClendon10Greenwood High School29:51.00282
640Shanay Desai10Madison Central HS29:53.40--
641Kalitre Wilson10Greenwood High School30:02283
642Jackson Massengill9Corinth High School30:09.24--
643Qi Zheng10Biloxi High School30:10.32--
644Isaac Moore11West Lauderdale High School30:12.23--
645Caleb Scott10Petal High School30:21.06--
646Jajuan Greene9Greenwood High School30:24.00--
647Cameron Frost11Terry High School30:24.27--
648Kendarious Burrell12Vicksburg High School30:27.97--
649Dylan Becker9Brookhaven High School30:29.20--
650Morgan Blum11Saint Stanislaus High School30:33.74--
651Cedrell Barksdale10Greenwood High School30:37.00--
652Sawyer Cutrer11Brookhaven High School30:43.38--
653Thomas Crowe11Saint Stanislaus High School30:43.58--
654J.P. Petermann11Germantown High School30:46.78--
655Reggie Lewis12Terry High School30:53.96--
656Peyton Davidson10Warren Central HS30:55.38--
657Robert Fleming11Warren Central HS31:17.00--
658Hayden Grubbs9Hernando High School31:25.00--
659Ethan Theobald12Saint Stanislaus High School31:26.20--
660Nathan Rowzee9Hernando High School31:27.00--
661Caleb North10Warren Central HS31:30.80--
662Zachary Smith10Scott Central High School31:36.24284
663Cameron Powe9Terry High School32:11.91--
664Ethan Rennaker8Hernando High School32:15.63--
665Jalen Short10Terry High School32:15.67--
666Deandre Mcgee10Greenwood High School32:21.00--
667Courtavious Ross12Vicksburg High School32:21.59--
668Jack Dufrene11Saint Stanislaus High School32:34.92--
669Bradley Joyner12South Panola High School32:41.80--
670Darrell Harris10Greenwood High School32:50.00--
671Adrian Strong9Lafayette High School33:24.90--
672Joshua Parker11Terry High School34:16.59--
673Kanon Anderson10Hancock High School34:35.45--
674Kaden Pope7Hernando High School35:00.00--
675David Meacham7Hernando High School35:14.64--
676Jacob Barnes9Terry High School35:15.72--
677Christian Borders11Terry High School36:05.39--
678Anthony Jones10Terry High School37:12.68--
679Hayden Moore10Terry High School37:13.95--
680Blake Jackson10Terry High School43:15.00--

Championship Meet - 44 Teams Team Scores

#TeamScore1234567
1Airline2612689--
2Bartlett High School5634121720--
3Ruston153516394053--
4Baker1782732353846--
5Ocean Springs High School1811324365157--
6Saltillo High School1931523424370--
7St. Paul's Episcopal2642544526182--
8Brookhaven High School30818216367139--
9Hernando High School3187507980102--
10Starkville High School3283134838595--
11Corinth High School3393062738490--
12Brandon High School38922818997100--
13West Monroe4006472868791--
14Biloxi High School4463369111116117--
15East Central High School460145976144167--
16Fontainebleau4611165105137143--
17Madison Central HS466454971125176--
18Senatobia High School4865592101107131--
19Kossuth High School51447103106122136--
20Clinton High School5385493115128148--
21Saint Stanislaus High School56988112118121130--
22Oak Grove High School60210126138147181--
23St. Thomas Aquinas6474866158159216--
24Germantown High School667110114120160163--
25South Panola High School6984198151178230--
26West Lauderdale High School719132141142149155--
27Sterlington76337127192198209--
28Warren Central HS871135150152206228--
29Petal High School87219161221224247--
30Long Beach High School915113183189207223--
31D'Iberville High School927124186195203219--
32St. Fredrick992172188202212218--
33Lafayette High School1015166175214229231--
34Florence High School1018173205210213217--
35Pascagoula High School1081177185222232265--
36Terry High School1083182197225227252--
37Hancock High School1114170190249250255--
38Vicksburg High School1155169215246262263--
39Gentry High School1190196204254256280--
40Greenwood High School1357253274275277278--
41Scott Central High School1367264270273279281--
--South Jones High SchoolNTS
--McComb High SchoolNTS
--Greenville HSNTS


Comments